Regional Weather Roundup
Issued by NWS

Home | Current Version | Previous Version | Graphics & Text | Print | Product List | Glossary On
Versions: 1 2 3 4 5 6 7 8 9 10 11 12 13 14 15 16 17 18 19 20 21 22 23 24 25 26 27 28 29 30 31 32 33 34 35 36 37 38 39 40 41 42 43 44 45 46 47 48 49 50
000
ASUS43 KBIS 240410
RWRND

NORTH DAKOTA REGIONAL WEATHER ROUNDUP
NATIONAL WEATHER SERVICE BISMARCK ND
1100 PM CDT WED APR 23 2014

NOTE: "FAIR" INDICATES FEW OR NO CLOUDS BELOW 12,000 FEET WITH NO
SIGNIFICANT WEATHER AND/OR OBSTRUCTIONS TO VISIBILITY.


NDZ001>003-009>011-017-240500-
NORTHWEST NORTH DAKOTA

CITY           SKY/WX    TMP DP  RH WIND       PRES   REMARKS
WILLISTON      PTCLDY    43  37  79 SW3       29.63R
MINOT          CLOUDY    44  42  93 SW3       29.65R
MINOT AFB      PTCLDY    40  40 100 SE6       29.64S
$$

NDZ018>021-031>035-040>046-240500-
SOUTHWEST NORTH DAKOTA

CITY           SKY/WX    TMP DP  RH WIND       PRES   REMARKS
BISMARCK       MOCLDY    44  32  62 CALM      29.71R
DICKINSON      CLOUDY    38  24  57 S5        29.68R
GARRISON         N/A     38  37  97 SE3       29.67R
HETTINGER ARPT MOCLDY    36  28  73 W5        29.73R
$$

NDZ004>008-012>016-024-026-027-054-240500-
NORTHEAST NORTH DAKOTA

CITY           SKY/WX    TMP DP  RH WIND       PRES   REMARKS
GRAND FORKS    LGT RAIN  39  37  92 SE18G29   29.84S
GRND FRKS AFB  LGT RAIN  38  38  99 SE15      29.83S
DEVILS LAKE    CLOUDY    37  34  87 SE14      29.76R
$$

NDZ022-023-025-028>030-036>039-047>053-240500-
SOUTHEAST NORTH DAKOTA

CITY           SKY/WX    TMP DP  RH WIND       PRES   REMARKS
FARGO          CLOUDY    42  37  82 SE21      29.79F
JAMESTOWN      CLOUDY    40  38  93 SE16      29.74S
$$




USA.gov is the U.S. government's official web portal to all federal, state and local government web resources and services.